{"data":{"norad_id":67886,"intl_designator":"2026-035H","name":"STARLINK-36390","alt_names":[],"object_type":"PAYLOAD","status":"ACTIVE","operator":null,"country":"US","launch_date":"2026-02-21","launch_site_code":"AFWTR","launch_vehicle":null,"mission":null,"orbit_class":"UNKNOWN","rcs_meters":null,"size_class":null,"mass_kg":null,"dimensions":null,"purposes":["comms"],"wikipedia_slug":null,"has_3d_model":false,"image_url":null,"decayed_at":null,"tle_current":{"epoch":"2026-05-25T02:11:30.268320Z","epoch_age_seconds":74081,"freshness":"FRESH","line1":"1 67886U 26035H   26145.09132255  .00054898  00000+0  16898-2 0  9993","line2":"2 67886  97.2847  78.5688 0001470 104.5370 255.6036 15.33457274 15697","mean_motion":15.33457274,"eccentricity":0.000147,"inclination_deg":97.2847,"raan_deg":78.5688,"arg_perigee_deg":104.537,"mean_anomaly_deg":255.6036,"bstar":0.0016898,"rev_number":1569,"period_min":93.905453018836,"perigee_km":464.50064031579,"apogee_km":466.51267155063,"semimajor_km":6843.6436559332,"source":"CELESTRAK","updated_at":"2026-05-25T13:38:21.733021Z"}}}